TIME,DELAY(SENSOR),PRES,OXYGEN,RAWTEMP,T(OPTODE),TCPHASE,FLUOR,BETA(BETA700),BETA(BETA412),BETA(BETA440),CDOM,C(CSC),ED(ED411.90),ED(ED443.80),ED(ED489.40),ED(ED554.70),LU(LU412.20),LU(LU443.80),LU(LU489.40),LU(LU555.00),COMP,TILTX,TILTY,CHECK
1345412518,5803,883.9400024414062000,165.0718994140625000,426.6997985839844000,10.1582603454589840,39.5856590270996100,51,107,100,83,74,15540,2147449344,2147789696,2147575286,2147821860,2147306953,2147454473,2147748123,2148268114,2679,6,14,35938
1345416114,5805,9.6000003814697270,190.1071929931640600,497.7771911621094000,7.9496970176696780,39.0516700744628900,51,105,102,83,74,15538,2147439780,2147798445,2147586989,2147829440,2147308534,2147453979,2147759515,2148276754,544,6,14,40162
1345419714,5803,10.6999998092651370,198.0514984130859400,508.0042114257812500,7.6293621063232420,38.7260017395019500,51,106,101,82,75,15534,2147436498,2147796955,2147582674,2147829906,2147307437,2147450605,2147757888,2148276406,3313,6,15,11440
1345423314,5806,10.8000001907348630,200.4815063476562500,510.9176025390625000,7.5379738807678220,38.6277618408203100,51,105,100,82,75,15535,2147441892,2147800329,2147584128,2147830445,2147304758,2147452141,2147759817,2148280091,440,6,14,61529
1345426914,5803,1122.0000000000000000,202.8970031738281200,514.0510864257812000,7.4396162033081055,38.5343894958496100,51,109,103,82,76,15532,2147436562,2147799213,2147585051,2147830171,2147308973,2147447469,2147765092,2148277458,2269,6,14,30648
1345430514,5804,11.3000001907348630,204.1851043701172000,515.2081298828125000,7.4032840728759770,38.4771308898925800,50,105,102,83,74,15532,2147431076,2147798208,2147584585,2147831259,2147306779,2147447634,2147762861,2148277248,3542,6,15,50102
1345434114,5805,1013.0000000000000000,204.6941070556640600,516.7131958007812000,7.3560051918029785,38.4734992980957000,51,112,100,81,74,15527,2147434596,2147797540,2147582244,2147831972,2147307538,2147451108,2147761563,2148278948,78,6,14,10560
1345437714,5805,10.6999998092651370,204.9028015136718800,517.9138183593750000,7.3182787895202640,38.4817695617675800,51,105,101,83,75,15477,2147435675,2147794962,2147583259,2147828827,2147304713,2147451081,2147762386,2148279003,570,6,15,49853
1345441314,5804,1096.0000000000000000,204.9918975830078000,516.7478027343750000,7.3549170494079590,38.4557113647460940,51,105,101,82,76,15474,2147433499,2147794541,2147583926,2147832384,2147308397,2147451830,2147762816,2148280082,3389,6,14,4395
1345444914,5803,12.6000003814697270,204.6741943359375000,516.0112304687500000,7.3780589103698730,38.4620513916015600,52,107,101,82,75,15468,2147434596,2147796470,2147585206,2147829046,2147305618,2147449334,2147758957,2148275803,2778,6,15,6152
1345448514,5804,12.3999996185302730,203.8885040283203000,516.4962768554688000,7.3628177642822270,38.5183792114257800,51,104,101,81,75,15466,2147434496,2147797229,2147583332,2147830454,2147305773,2147449243,2147762121,2148274742,142,6,14,14541
1345452114,5804,10.3000001907348630,204.4846038818359400,515.6774902343750000,7.3885397911071780,38.4676895141601560,51,104,103,82,76,15467,2147435346,2147799625,2147585618,2147828205,2147307913,2147451136,2147761700,2148278994,574,6,14,64441
1345455714,5803,12.1999998092651370,203.6307067871093800,516.4904785156250000,7.3629989624023440,38.5332717895507800,51,105,101,82,75,15468,2147435099,2147793444,2147584804,2147829330,2147306249,2147449691,2147762057,2148278491,3090,6,15,24454
1345459314,5804,13.8000001907348630,203.7129058837890600,516.4417114257812000,7.3645348548889160,38.5279998779296900,51,105,101,81,76,15464,2147435830,2147794761,2147582491,2147831707,2147307958,2147451446,2147760338,2148279387,3340,6,14,43383
1345462914,5805,12.3000001907348630,203.0487976074218800,516.9793701171875000,7.3476390838623050,38.5774497985839840,51,103,100,82,75,15465,2147433115,2147799424,2147581961,2147827785,2147306358,2147442413,2147760886,2148277366,3394,6,14,1490
1345466514,5803,1015.0000000000000000,204.9145965576172000,518.8419189453125000,7.2891077995300290,38.4981613159179700,51,105,101,82,75,15455,2147438738,2147795437,2147585517,2147831835,2147308644,2147447113,2147762962,2148281261,597,6,14,36525
1345470114,5805,1251.0000000000000000,205.9521942138672000,519.2451782226562000,7.2764282226562500,38.4429893493652340,51,105,100,82,76,15463,2147437010,2147796580,2147581942,2147829568,2147308278,2147446729,2147763492,2148281142,2980,6,14,17730
1345473714,5805,12.3000001907348630,204.7388000488281200,516.8546142578125000,7.3515620231628420,38.4728012084960940,51,104,103,82,76,15462,2147437184,2147796882,2147584192,2147829211,2147308050,2147450971,2147763044,2148278006,632,6,14,20901
1345477314,5806,12.0000000000000000,203.7317047119140600,517.7766113281250000,7.3225917816162110,38.5503005981445300,51,362,103,80,77,15462,2147436772,2147799350,2147583753,2147831277,2147307136,2147446034,2147763776,2148278592,3520,6,14,41676
1345480914,5800,10.3000001907348630,205.2917938232422000,518.2747802734375000,7.3069310188293460,38.4646110534668000,51,103,103,82,75,15462,2147436690,2147797696,2147585956,2147829677,2147306550,2147448393,2147761627,2148279488,3594,6,15,40371
1345484514,5806,13.5000000000000000,204.3773956298828000,516.4069824218750000,7.3656229972839355,38.4866218566894500,51,104,101,82,76,15461,2147437421,2147795894,2147583936,2147830637,2147306322,2147448356,2147759378,2148280036,75,6,14,58372
1345488114,5808,13.5000000000000000,202.7586059570312500,515.0662841796875000,7.4077358245849610,38.5606193542480500,51,102,101,81,76,15460,2147438180,2147795392,2147582061,2147832265,2147309888,2147451108,2147757769,2148280886,12,6,14,41450
1345491714,5805,13.1000003814697270,203.1414947509765600,515.7857055664062000,7.3851408958435060,38.5510406494140600,51,103,101,82,75,15460,2147433426,2147796498,2147584146,2147826294,2147304502,2147451364,2147757915,2148280914,124,6,14,29113
1345495314,5802,10.0000000000000000,201.4718933105468800,513.2858886718750000,7.4636430740356445,38.6086196899414060,52,103,100,82,75,15457,2147435446,2147796160,2147582125,2147829504,2147309028,2147451565,2147761846,2148279140,3507,6,15,64880
1345498914,5803,12.3000001907348630,199.1916961669922000,513.6959228515625000,7.4507689476013180,38.7555503845214840,52,103,100,82,76,15454,2147438372,2147798637,2147582902,2147831808,2147309293,2147456640,2147758665,2148277869,3549,6,15,31067
1345502514,5804,10.1000003814697270,200.4754943847656200,514.1397705078125000,7.4368309974670410,38.6846809387207000,51,103,103,82,75,15457,2147436818,2147795876,2147584137,2147828726,2147307136,2147449792,2147759158,2148280411,470,6,14,3298
1345506114,5804,10.5000000000000000,202.0843048095703000,514.7230224609375000,7.4185180664062500,38.5964202880859400,50,104,102,82,76,15454,2147437101,2147797165,2147583305,2147829440,2147310299,2147450706,2147763218,2148276196,2836,6,14,48481
1345509714,5805,1190.0000000000000000,203.9223937988281200,516.6793823242188000,7.3570661544799805,38.5188407897949200,51,109,101,84,75,15452,2147436315,2147797897,2147585737,2147830921,2147307044,2147450962,2147762258,2148278381,146,6,14,5063
1345513314,5805,12.3999996185302730,202.1690979003906200,514.3684082031250000,7.4296541213989260,38.5843582153320300,51,107,102,82,76,15450,2147434678,2147797778,2147585389,2147831908,2147307702,2147451538,2147759917,2148278098,3055,6,14,51578
1345516914,5806,1197.0000000000000000,202.0476989746093800,514.9074707031250000,7.4127249717712400,38.6017303466796900,51,104,100,83,76,15453,2147434715,2147797238,2147583314,2147829842,2147304237,2147448941,2147761645,2148278765,12,6,14,44522
1345520514,5807,10.1999998092651370,201.8199005126953000,516.3505859375000000,7.3673958778381350,38.6413002014160160,51,104,102,81,75,15451,2147435008,2147795309,2147585334,2147833737,2147305453,2147448512,2147761929,2148278427,3288,6,14,46067
1345524114,5805,10.6999998092651370,203.3621063232422000,516.8615112304688000,7.3513441085815430,38.5567207336425800,51,108,103,81,75,15449,2147431817,2147794816,2147588315,2147828681,2147306349,2147446802,2147760502,2148279789,481,6,14,13969
1345527714,5806,12.8000001907348630,203.2474060058593800,516.3715209960938000,7.3667378425598145,38.5545310974121100,51,103,102,83,75,15452,2147432694,2147797952,2147586185,2147832146,2147302976,2147454006,2147763730,2148282313,645,6,14,20576
1345531314,5804,12.5000000000000000,202.4483032226562500,514.8773193359375000,7.4136719703674320,38.5763587951660160,51,110,101,82,75,15450,2147430765,2147797065,2147584923,2147828425,2147309028,2147453238,2147761627,2148278134,458,6,15,43440
1345534914,5805,10.8000001907348630,201.6372070312500000,514.4614257812500000,7.4267330169677730,38.6191482543945300,51,104,101,82,76,15445,2147437531,2147800027,2147584054,2147827547,2147303872,2147452836,2147761014,2148280576,248,6,14,11134
1345538514,5802,13.3000001907348630,201.0960998535156200,512.9807739257812000,7.4732198715209960,38.6253395080566400,51,105,103,81,75,15446,2147436891,2147797906,2147584292,2147832475,2147307017,2147449508,2147757220,2148278326,3504,6,14,19139
1345542114,5804,1287.0000000000000000,200.0413055419922000,512.8450927734375000,7.4774808883666990,38.6885299682617200,51,104,101,81,75,15446,2147437403,2147796041,2147585435,2147828406,2147308004,2147454729,2147758034,2148278272,3502,6,15,62873
1345545714,5807,10.6999998092651370,201.0057983398437500,513.3796997070312000,7.4606981277465820,38.6384506225585940,51,106,101,82,76,15448,2147437092,2147796160,2147584246,2147828470,2147305426,2147452918,2147761097,2148278436,26,6,14,59808
1345549314,5804,13.3999996185302730,201.1838989257812500,513.4547119140625000,7.4583439826965330,38.6289405822753900,51,108,100,83,76,15447,2147434962,2147797952,2147584320,2147828114,2147307364,2147450349,2147759469,2148277613,125,6,15,11123
1345552914,5805,10.3999996185302730,200.9644927978515600,514.3400878906250000,7.4305419921875000,38.6579704284668000,51,106,102,83,75,15442,2147436096,2147794093,2147586441,2147832521,2147310299,2147454454,2147760064,2148277769,656,6,14,45943
1345555856,5805,12.6999998092651370,201.3975067138672000,514.8560180664062000,7.4143409729003910,38.6408615112304700,52,104,100,83,75,15441,2147440484,2147796708,2147582354,2147831652,2147306249,2147450971,2147757942,2148276626,3589,6,14,20865
